[[{"header":{"parameterUnit":"m.s-1","parameterCategory":1,"la1":30.2991,"la2":30.254,"lo1":-89.0895,"lo2":-89.0444,"dy":0.0017,"dx":0.0017,"nx":28,"ny":28,"refTime":"2025-09-11T21:00:00:Z","depth":0,"parameterNumber":2,"parameterNumberName":"U-component_of_WINDS"},"data":[0,0,0,0,0,0,0,0,0,0,0,0,0,0,0,0,0,0,0,0,0,0,0,0,0,0,0,0,0,0,0,0,0,0,0,0,0,0,0,0,0,0,0,0,0,0,0,0,0,0,0,0,0,0,0,0,0,0,-2.6735,-2.6735,0,-2.6759,-2.676,-2.676,-2.6714,-2.6712,-2.6711,-2.6709,-2.6735,-2.6737,-2.6739,0,0,0,0,0,0,0,0,0,0,0,0,0,-2.6648,-2.665,-2.6735,-2.6735,-2.6735,-2.6759,-2.676,-2.676,-2.6714,-2.6712,-2.671,-2.6709,-2.6734,-2.6737,-2.6739,0,0,0,0,0,0,0,0,0,0,0,0,0,-2.6681,-2.6651,-2.6734,-2.6715,-2.6714,-2.6759,-2.676,-2.676,-2.6714,-2.6712,-2.671,-2.6708,-2.6733,-2.6736,-2.674,-2.6805,0,0,-2.6749,-2.6751,0,0,0,0,0,0,0,0,-2.6679,-2.6684,-2.6718,-2.6717,-2.6715,-2.6731,-2.6739,-2.6775,-2.6715,-2.6714,-2.6709,-2.6707,-2.6736,-2.6738,-2.6748,-2.6807,-2.6808,-2.675,-2.6752,-2.6753,-2.6754,0,0,0,0,0,0,0,-2.6677,-2.6683,-2.6744,-2.6718,-2.6717,-2.6706,-2.6708,-2.6745,-2.6737,-2.6714,-2.6711,-2.6714,-2.6734,-2.6745,-2.6748,-2.6808,-2.675,-2.6752,-2.6754,-2.6756,-2.6924,-2.6926,0,0,0,0,0,0,-2.6677,-2.6681,-2.6744,-2.6745,-2.6691,-2.6709,-2.6711,-2.6728,-2.6737,-2.6736,-2.6716,-2.6712,-2.6741,-2.6745,-2.6749,-2.6828,-2.6753,-2.6756,-2.6758,-2.6921,-2.6925,-2.6927,0,0,0,0,0,0,-2.6675,-2.6683,-2.6743,-2.6712,-2.6719,-2.6713,-2.6732,-2.673,-2.6741,-2.6739,-2.6737,-2.6729,-2.6739,-2.6745,-2.6792,-2.6828,-2.6757,-2.676,-2.6918,-2.6922,-2.6926,-2.6985,0,0,0,0,0,0,-2.6673,-2.6682,-2.6707,-2.6713,-2.6721,-2.6785,-2.6735,-2.6732,-2.6746,-2.6741,-2.675,-2.6749,-2.6738,-2.6788,-2.6795,-2.6831,-2.6763,-2.6915,-2.692,-2.6925,-2.698,-2.699,-2.7,0,0,0,0,0,-2.667,-2.6722,-2.6708,-2.6716,-2.6751,-2.6787,-2.6791,-2.6777,-2.6749,-2.6774,-2.6773,-2.6749,-2.6823,-2.6793,-2.6801,-2.6838,-2.6913,-2.6919,-2.6924,-2.6975,-2.6988,-2.6999,0,0,0,0,0,0,-2.6719,-2.6722,-2.6707,-2.6763,-2.6775,-2.6779,-2.681,-2.6791,-2.6811,-2.6806,-2.6787,-2.679,-2.6841,-2.6845,-2.6811,-2.6904,-2.6863,-2.6871,-2.6899,-2.6912,-2.6921,-2.6919,-2.6765,0,0,0,0,0,-2.6737,-2.6766,-2.6767,-2.6816,-2.6823,-2.6816,-2.6831,-2.6819,-2.6831,-2.6836,-2.6838,-2.6851,-2.6877,-2.6895,-2.6918,-2.6981,-2.6982,-2.701,-2.702,-2.7028,-2.7035,-2.707,-2.7083,-2.6946,-2.6946,-2.6946,0,0,-2.6773,-2.6779,-2.6798,-2.6826,-2.6834,-2.6865,-2.682,-2.6854,-2.6877,-2.6841,-2.6886,-2.6889,-2.6902,-2.6957,-2.6982,-2.6961,-2.7074,-2.7036,-2.7042,-2.7045,-2.7077,-2.709,-2.7102,-2.695,-2.695,-2.6949,0,0,-2.6855,-2.6862,-2.6904,-2.6914,-2.6927,-2.6922,-2.6932,-2.694,-2.694,-2.6985,-2.696,-2.6987,-2.7032,-2.7043,-2.7054,-2.7143,-2.7122,-2.7152,-2.7203,-2.7237,-2.7248,-2.7257,-2.729,-2.7301,-2.7158,-2.7159,-2.7159,0,-2.6898,-2.6943,-2.6928,-2.6964,-2.6978,-2.6948,-2.6991,-2.7001,-2.7022,-2.7032,-2.7009,-2.7067,-2.7074,-2.7132,-2.7154,-2.7164,-2.7176,-2.715,-2.7247,-2.7257,-2.7265,-2.7296,-2.7308,-2.7162,-2.7162,-2.7161,-2.7161,0,-2.6996,-2.7028,-2.7061,-2.7082,-2.71,-2.7139,-2.7131,-2.7151,-2.7138,-2.7136,-2.7184,-2.7191,-2.7217,-2.723,-2.7218,-2.7288,-2.7275,-2.725,-2.7209,-2.7282,-2.7311,-2.7322,-2.7167,-2.7166,-2.7165,-2.7164,0,0,-2.7108,-2.7122,-2.7135,-2.7145,-2.7158,-2.7183,-2.7222,-2.7247,-2.7265,-2.7281,-2.7314,-2.7354,-2.7332,-2.7345,-2.7334,-2.7364,-2.7436,-2.7336,-2.7336,-2.7355,-2.7514,-2.7533,-2.7547,-2.7422,-2.7424,-2.7426,-2.7514,0,-2.719,-2.7257,-2.7246,-2.7311,-2.7341,-2.7314,-2.7348,-2.7361,-2.7361,-2.7386,-2.7386,-2.7415,-2.7383,-2.7392,-2.742,-2.7421,-2.7467,-2.7414,-2.7453,-2.7455,-2.745,-2.7562,-2.7581,-2.7663,-2.7525,-2.7526,-2.7528,0,-2.7293,-2.7314,-2.7383,-2.7393,-2.7406,-2.7436,-2.746,-2.7485,-2.7499,-2.7497,-2.7513,-2.7497,-2.7538,-2.7497,-2.7553,-2.7517,-2.7532,-2.7536,-2.7538,-2.7541,-2.7495,-2.7568,-2.7688,-2.7701,-2.7545,-2.7544,-2.7543,0,-2.7369,-2.7414,-2.7461,-2.7471,-2.7484,-2.7507,-2.7513,-2.7525,-2.7542,-2.7563,-2.7574,-2.7599,-2.7613,-2.7634,-2.7626,-2.7597,-2.7684,-2.7642,-2.7684,-2.7684,-2.7703,-2.7702,-2.7828,-2.7713,-2.7713,-2.7713,-2.7712,0,-2.7461,-2.7505,-2.7496,-2.7525,-2.7573,-2.756,-2.7608,-2.7612,-2.7623,-2.7653,-2.7632,-2.766,-2.7648,-2.7676,-2.7671,-2.7718,-2.7725,-2.7725,-2.7723,-2.7727,-2.7727,-2.7736,-2.773,-2.7716,-2.7715,-2.7715,-2.7714,0,-2.7553,-2.7549,-2.7599,-2.7608,-2.7612,-2.7647,-2.7655,-2.7683,-2.7682,-2.772,-2.7729,-2.7727,-2.7759,-2.7754,-2.7789,-2.7786,-2.7846,-2.7837,-2.7841,-2.7839,-2.7881,-2.7877,-2.8018,-2.8036,-2.7909,-2.791,-2.7911,0,-2.7612,-2.7645,-2.7659,-2.7677,-2.7686,-2.7716,-2.7734,-2.7723,-2.7742,-2.7763,-2.7788,-2.7819,-2.7842,-2.7896,-2.7898,-2.7926,-2.7917,-2.7965,-2.7921,-2.7925,-2.7919,-2.7917,-2.7921,-2.7973,-2.7975,-2.7976,-2.7977,0,-2.7718,-2.7715,-2.7741,-2.7767,-2.7788,-2.7808,-2.7826,-2.7843,-2.7834,-2.7857,-2.789,-2.7909,-2.7946,-2.7977,-2.8003,-2.8011,-2.7993,-2.7991,-2.8002,-2.8006,-2.8007,-2.8008,-2.7864,-2.7987,-2.7986,-2.7986,-2.7985,-2.7985,-2.7795,-2.7824,-2.7838,-2.7869,-2.7881,-2.7899,-2.7926,-2.7929,-2.7956,-2.7986,-2.7978,-2.8016,-2.8032,-2.8065,-2.8076,-2.8106,-2.8089,-2.8105,-2.8109,-2.8113,-2.8118,-2.8003,-2.8111,-2.8111,-2.811,-2.811,-2.811,0,-2.79,-2.7909,-2.7937,-2.7963,-2.7987,-2.7969,-2.7988,-2.801,-2.8043,-2.8059,-2.8084,-2.8123,-2.8153,-2.8159,-2.8189,-2.8212,-2.8205,-2.822,-2.8218,-2.822,-2.8132,-2.8119,-2.8225,-2.8225,-2.8225,-2.8225,-2.8225,-2.8225,-2.7957,-2.8005,-2.8004,-2.8059,-2.8067,-2.8104,-2.8117,-2.8133,-2.8146,-2.8191,-2.8216,-2.822,-2.8232,-2.8263,-2.8291,-2.8292,-2.8304,-2.8323,-2.8321,-2.8238,-2.8226,-2.8215,-2.8203,-2.8325,-2.8325,-2.8406,-2.8407,-2.8408]},{"header":{"parameterUnit":"m.s-1","parameterCategory":1,"la1":30.2991,"la2":30.254,"lo1":-89.0895,"lo2":-89.0444,"dy":0.0017,"dx":0.0017,"nx":28,"ny":28,"refTime":"2025-09-11T21:00:00:Z","depth":0,"parameterNumber":3,"parameterNumberName":"V-component_of_WINDS"},"data":[0,0,0,0,0,0,0,0,0,0,0,0,0,0,0,0,0,0,0,0,0,0,0,0,0,0,0,0,0,0,0,0,0,0,0,0,0,0,0,0,0,0,0,0,0,0,0,0,0,0,0,0,0,0,0,0,0,0,-0.6508,-0.6507,0,-0.6414,-0.6413,-0.6412,-0.6346,-0.6345,-0.6345,-0.6344,-0.6245,-0.6243,-0.6241,0,0,0,0,0,0,0,0,0,0,0,0,0,-0.6625,-0.6623,-0.6508,-0.6506,-0.6505,-0.6414,-0.6413,-0.6412,-0.6346,-0.6345,-0.6344,-0.6344,-0.6246,-0.6244,-0.6241,0,0,0,0,0,0,0,0,0,0,0,0,0,-0.6557,-0.6623,-0.6508,-0.6461,-0.6456,-0.6414,-0.6413,-0.6411,-0.6346,-0.6345,-0.6344,-0.6344,-0.6247,-0.6244,-0.6241,-0.6237,0,0,-0.6231,-0.6229,0,0,0,0,0,0,0,0,-0.6561,-0.6553,-0.6469,-0.6465,-0.6459,-0.6391,-0.6418,-0.6353,-0.6346,-0.6388,-0.6344,-0.6343,-0.6294,-0.6287,-0.6271,-0.6232,-0.6228,-0.6231,-0.6229,-0.6227,-0.6226,0,0,0,0,0,0,0,-0.6566,-0.6556,-0.647,-0.6468,-0.6462,-0.6444,-0.6433,-0.6405,-0.6346,-0.6384,-0.6379,-0.6369,-0.6291,-0.6274,-0.6268,-0.6226,-0.6231,-0.6228,-0.6226,-0.6225,-0.6176,-0.6177,0,0,0,0,0,0,-0.6578,-0.6561,-0.6473,-0.6468,-0.6509,-0.6443,-0.6431,-0.6413,-0.6347,-0.6336,-0.637,-0.6366,-0.628,-0.6272,-0.6265,-0.6254,-0.6227,-0.6224,-0.6222,-0.6176,-0.6176,-0.6177,0,0,0,0,0,0,-0.6581,-0.6571,-0.6477,-0.6513,-0.65,-0.6441,-0.6422,-0.6412,-0.6395,-0.6336,-0.6325,-0.6364,-0.6279,-0.6269,-0.6244,-0.625,-0.6223,-0.622,-0.6175,-0.6176,-0.6177,-0.6234,0,0,0,0,0,0,-0.6585,-0.6573,-0.6572,-0.6513,-0.6498,-0.6459,-0.6423,-0.6411,-0.639,-0.6385,-0.6327,-0.6317,-0.6278,-0.6249,-0.6241,-0.6245,-0.6217,-0.6174,-0.6175,-0.6176,-0.6232,-0.6237,-0.6242,0,0,0,0,0,-0.6589,-0.6591,-0.6572,-0.6562,-0.6496,-0.646,-0.6451,-0.6407,-0.6391,-0.6389,-0.635,-0.6319,-0.6251,-0.6247,-0.6237,-0.6241,-0.6174,-0.6175,-0.6176,-0.6229,-0.6236,-0.6242,0,0,0,0,0,0,-0.6651,-0.6583,-0.6561,-0.6544,-0.6509,-0.6449,-0.6445,-0.6416,-0.6383,-0.6379,-0.6325,-0.6312,-0.6292,-0.6263,-0.6261,-0.6232,-0.6208,-0.6208,-0.6252,-0.6258,-0.6263,-0.627,-0.6215,0,0,0,0,0,-0.6663,-0.6641,-0.6582,-0.6573,-0.6556,-0.6504,-0.6487,-0.6456,-0.6416,-0.64,-0.636,-0.6322,-0.6291,-0.6273,-0.6242,-0.6227,-0.6212,-0.6224,-0.6229,-0.6234,-0.6234,-0.6222,-0.6227,-0.6182,-0.6182,-0.6182,0,0,-0.6688,-0.6647,-0.6637,-0.6585,-0.6553,-0.653,-0.6492,-0.6469,-0.6451,-0.6397,-0.637,-0.6339,-0.6293,-0.6272,-0.6261,-0.6248,-0.6243,-0.6236,-0.624,-0.6237,-0.6224,-0.6229,-0.6232,-0.6183,-0.6183,-0.6183,0,0,-0.672,-0.6688,-0.6676,-0.6646,-0.6599,-0.6563,-0.6561,-0.6505,-0.6482,-0.6455,-0.6413,-0.639,-0.6339,-0.6307,-0.6285,-0.6303,-0.6272,-0.6294,-0.6321,-0.631,-0.6314,-0.6317,-0.6322,-0.6325,-0.6294,-0.6295,-0.6295,0,-0.6756,-0.6721,-0.6674,-0.6654,-0.6631,-0.6581,-0.6568,-0.654,-0.6485,-0.647,-0.6456,-0.639,-0.6355,-0.6326,-0.633,-0.6314,-0.6308,-0.6301,-0.6317,-0.632,-0.6322,-0.6326,-0.6329,-0.6297,-0.6297,-0.6297,-0.6297,0,-0.6767,-0.6743,-0.6739,-0.6688,-0.6665,-0.6648,-0.6598,-0.6579,-0.655,-0.6516,-0.6487,-0.6443,-0.6402,-0.6392,-0.6363,-0.6358,-0.6351,-0.6328,-0.6303,-0.633,-0.6333,-0.6335,-0.6302,-0.6301,-0.63,-0.6299,0,0,-0.6838,-0.676,-0.6759,-0.6734,-0.6678,-0.6658,-0.6638,-0.6598,-0.6583,-0.6546,-0.6527,-0.6484,-0.6462,-0.6436,-0.6402,-0.6393,-0.6409,-0.637,-0.6368,-0.6379,-0.6399,-0.6417,-0.642,-0.6388,-0.6388,-0.6388,-0.6403,0,-0.6861,-0.6825,-0.6781,-0.6759,-0.6735,-0.6686,-0.6668,-0.6631,-0.6598,-0.6571,-0.6534,-0.6504,-0.6477,-0.6461,-0.645,-0.641,-0.6412,-0.6408,-0.6369,-0.6368,-0.6382,-0.6422,-0.6442,-0.6458,-0.6404,-0.6404,-0.6404,0,-0.6885,-0.6851,-0.6827,-0.6771,-0.6759,-0.6745,-0.6703,-0.6679,-0.6635,-0.6611,-0.6581,-0.6545,-0.652,-0.6497,-0.6461,-0.6459,-0.644,-0.6417,-0.6417,-0.6412,-0.6388,-0.6418,-0.6462,-0.6465,-0.6406,-0.6406,-0.6406,0,-0.6939,-0.6887,-0.6865,-0.6845,-0.678,-0.677,-0.6742,-0.6697,-0.6675,-0.6638,-0.6623,-0.6584,-0.6562,-0.6532,-0.6485,-0.6473,-0.6453,-0.6427,-0.6431,-0.6433,-0.643,-0.6431,-0.6472,-0.6418,-0.6418,-0.6418,-0.6418,0,-0.697,-0.6957,-0.6888,-0.6875,-0.6858,-0.6806,-0.6791,-0.6758,-0.6718,-0.6696,-0.665,-0.663,-0.6569,-0.6542,-0.6505,-0.6479,-0.647,-0.6449,-0.6439,-0.6453,-0.6456,-0.6441,-0.6438,-0.6418,-0.6418,-0.6418,-0.6418,0,-0.7028,-0.6981,-0.6954,-0.6894,-0.6878,-0.6868,-0.6816,-0.68,-0.6763,-0.6736,-0.6727,-0.6669,-0.6634,-0.6584,-0.6534,-0.6508,-0.6488,-0.6473,-0.6504,-0.6498,-0.6505,-0.6505,-0.6538,-0.6539,-0.6485,-0.6486,-0.6486,0,-0.7052,-0.704,-0.6978,-0.6961,-0.6935,-0.6907,-0.6884,-0.6832,-0.681,-0.6757,-0.6748,-0.6709,-0.6676,-0.6621,-0.6574,-0.6535,-0.6518,-0.6532,-0.6511,-0.6525,-0.6517,-0.6519,-0.6517,-0.6537,-0.6538,-0.6538,-0.6539,0,-0.7098,-0.7075,-0.7045,-0.7006,-0.698,-0.6947,-0.6911,-0.6899,-0.6838,-0.6816,-0.678,-0.6754,-0.6702,-0.6664,-0.6617,-0.6586,-0.6552,-0.6545,-0.6544,-0.6559,-0.6577,-0.6567,-0.6517,-0.6545,-0.6545,-0.6544,-0.6544,-0.6544,-0.7139,-0.7126,-0.708,-0.7047,-0.7015,-0.6982,-0.6964,-0.6925,-0.6894,-0.6849,-0.6819,-0.6784,-0.6737,-0.6672,-0.6642,-0.6613,-0.6599,-0.6598,-0.6597,-0.6598,-0.6602,-0.6582,-0.6604,-0.6604,-0.6604,-0.6604,-0.6604,0,-0.7183,-0.715,-0.7121,-0.7072,-0.7046,-0.7016,-0.6974,-0.6954,-0.6924,-0.6884,-0.6852,-0.6809,-0.6771,-0.672,-0.6678,-0.6664,-0.6648,-0.6655,-0.6656,-0.6649,-0.6618,-0.6623,-0.6669,-0.6669,-0.6669,-0.6669,-0.6669,-0.6669,-0.7203,-0.7179,-0.715,-0.7109,-0.7076,-0.7043,-0.7021,-0.699,-0.6957,-0.6912,-0.6881,-0.6848,-0.6802,-0.6756,-0.672,-0.6705,-0.6692,-0.6704,-0.6685,-0.6657,-0.6651,-0.6646,-0.665,-0.6702,-0.6702,-0.6719,-0.6719,-0.6719]}]]